リニア彗星

C/2000 G2 ( LINEAR )

English version
Home page
Updated on June 11, 2000

---------------------------------------------------------------------

・ プロフィール

発見日 2000年4月4日
発見光度 18.4等
発見者 Lincoln Laboratory Near-Earth Asteroid Research project

・ 軌道要素

   Improved orbital elements by K.Muraoka,
  from 126 observations  2000 Apr. 4 to May 3,  m.e. = +/- 0".74.

          T  =  2000 Feb.  6.1672  TT
       Peri. =  101.7529   
       Node  =  328.3862   (2000.0)
       Incl. =  170.4792   
          q  =    2.716787  AU
          e  =    0.809221 
          a  =   14.240514  AU
          n  =    0.0183407
          P  =   53.74      years

・ 星図

・ 光度変化

        m1 = 12.0 + 5 logΔ + 10.0 log r

---------------------------------------------------------------------

軌道要素は村岡健治氏の計算によるものです。
星図は StellaNavigator Ver.2.0 for Windows (アストロアーツ 編著 / アスキー出版局刊) で作成したものです。
光度グラフはComet for Windowsで作成したものです。

---------------------------------------------------------------------

Copyright(C) Seiichi Yoshida (comet@aerith.net). All rights reserved.